Regional Weather Roundup
Issued by NWS Green Bay, WI

Home | Current Version | Previous Version | Graphics & Text | Print | Product List | Glossary Off
Versions: 1 2 3 4 5 6 7 8 9 10 11 12 13 14 15 16 17 18 19 20 21 22 23 24 25 26 27 28 29 30 31 32 33 34 35 36 37 38 39 40 41 42 43 44 45 46 47 48 49 50

000
ASUS43 KGRB 030300
RWRGRB

NORTH-CENTRAL AND NORTHEAST WISCONSIN REGIONAL WEATHER ROUNDUP
NATIONAL WEATHER SERVICE GREEN BAY WI
1000 PM CDT MON MAY 02 2016

WIZ005-009-010>012-018-019-030400-
NORTH CENTRAL WISCONSIN

CITY           SKY/WX    TMP DP  RH WIND       PRES   REMARKS
IRONWOOD         N/A     43  36  75 CALM      29.97S
MANITOWISH WTR NOT AVBL
ARBOR VITAE    NOT AVBL
EAGLE RIVER    NOT AVBL
LAND O LAKES   NOT AVBL
RHINELANDER    CLEAR     43  30  60 CALM      29.99S
PHILLIPS       MOCLDY    47  37  67 CALM      29.99S
ANTIGO         NOT AVBL
TOMAHAWK       NOT AVBL
MERRILL        NOT AVBL
$$

WIZ013-073-030400-
NORTHEAST WISCONSIN

CITY           SKY/WX    TMP DP  RH WIND       PRES   REMARKS
IRON MOUNTAIN  CLEAR     49  30  48 SE5       29.98S
MARINETTE      CLEAR     46  34  61 CALM      29.99S
$$

WIZ017-030-035>037-045-030400-
CENTRAL WISCONSIN

CITY           SKY/WX    TMP DP  RH WIND       PRES   REMARKS
MEDFORD        NOT AVBL
WAUSAU         PTCLDY    54  38  54 CALM      29.98S
MOSINEE        CLOUDY    54  34  47 SW5       30.01S
MARSHFIELD     MOCLDY    51  34  52 W5        29.99F
WISC RAPIDS    MOCLDY    47  35  63 CALM      30.01F
STEVENS POINT  NOT AVBL
WAUPACA        MOCLDY    52  35  53 S3        30.01R
SHAWANO        PTCLDY    56  36  47 S5        29.99S
CLINTONVILLE   NOT AVBL
WAUTOMA        CLOUDY    49  37  63 CALM      30.02R
$$

WIZ038-039-048-051-030400-
FOX VALLEY

CITY           SKY/WX    TMP DP  RH WIND       PRES   REMARKS
NWS GREEN BAY  CLEAR     52  37  56 SW5       30.00S
APPLETON       PTCLDY    52  32  46 S7        29.99S
OSHKOSH        CLEAR     48  35  60 S5        30.00S
FOND DU LAC    CLEAR     48  37  65 S5        30.01S
$$

WIZ022-050-052-030400-
EAST CENTRAL WISCONSIN

CITY           SKY/WX    TMP DP  RH WIND       PRES   REMARKS
EPHRAIM        NOT AVBL
STURGEON BAY   CLEAR     46  32  57 S3        30.02S
MANITOWOC      NOT AVBL
SHEBOYGAN      CLEAR     42  35  76 CALM      30.01S
$$

LMZ563-521-522-541>543-030400-
LAKESHORE

STATION/POSITION TIME  TEMP    WIND        PRES    VSBY  WAVE
                       AIR SEA DIR/SP/G                  HT/PER
                 (UTC) (F)     (DEG/KT/KT) (MB)    (MI)  (FT/S)
SHEBOYGAN LKSHOR 0200   50     210/  2/  2 1016.9F
KEWAUNEE LKSHORE 0200   50                 1015.4S
ALGOMA MARINA    0200             CALM       N/A
NORTHPORT PIER   0200   49     200/  2/  4 1015.9S
N MID LAKE BUOY  0150   42 39  260/  4/  6 1016.1R         0
CHAMBERS ISLAND  0200   49     160/  2/  3 1015.9S
MENOMINEE LKSHOR 0200   53                 1014.6F
$$




USA.gov is the U.S. government's official web portal to all federal, state and local government web resources and services.